Location: ??
(35.5052°N, 139.7262°E)
Time: 02:37:53
(UTC+00:00)

Cosmos 1900 - Pass Details

Date: 20 June 2021
Orbit: 691 x 731 km, 66.1° (Epoch: 26 July)

Event Time Altitude Azimuth Distance (km) Brightness Sun altitude
Rises 12:20:42 0° 332° (NNW) 3,077 9.1 -22.1°
Reaches altitude 10° 12:23:02 10° 332° (NNW) 2,153 7.9 -22.4°
Maximum altitude 12:27:56 89° 61° (ENE) 695 4.2 -23.0°
Enters shadow 12:28:35 67° 151° (SSE) 746 4.1 -23.0°
